Location: Unspecified
(49.9820°N, 20.4363°E)
Time: 13:58:43
(UTC+02:00)

ISS - Pass Details

Date: 18 May 2018
Orbit: 402 x 407 km, 51.6° (Epoch: 20 May)

Event Time Altitude Azimuth Distance (km) Brightness Sun altitude
Exits shadow 01:48:37 25° 280° (W) 862 -2.3 -18.6°
Maximum altitude 01:50:20 64° 355° (N) 451 -3.5 -18.5°
Drops below altitude 10° 01:53:35 10° 78° (ENE) 1,458 -0.6 -18.4°
Sets 01:55:41 0° 82° (E) 2,318 0.4 -18.2°
